Regional Weather Roundup
Issued by NWS Albany, NY

Home | Current Version | Previous Version | Text Only | Print | Product List | Glossary On
Versions: 1 2 3 4 5 6 7 8 9 10 11 12 13 14 15 16 17 18 19 20 21 22 23 24 25 26 27 28 29 30 31 32 33 34 35 36 37 38 39 40 41 42 43 44 45 46 47 48 49 50
000
ASUS41 KALY 252110
RWRALY

NEW YORK STATE HOURLY WEATHER ROUNDUP
NATIONAL WEATHER SERVICE ALBANY NY
500 PM EDT FRI MAY 25 2018

NOTE: "FAIR" INDICATES FEW OR NO CLOUDS BELOW 12,000 FEET WITH NO
SIGNIFICANT WEATHER AND/OR NO OBSTRUCTIONS TO VISIBILITY.

NYZ032-033-038>043-046>054-057>066-NYZ062>081-082-084-252200-
EAST


CITY           SKY/WX    TMP DP  RH WIND       PRES   REMARKS
ALBANY         PTSUNNY   85  47  26 W14G23    29.79F
GLENS FALLS    PTSUNNY   82  53  36 VRB7      29.75F
POUGHKEEPSIE   FAIR      87  50  27 SW13      29.80F
NEWBURGH       SUNNY     86  54  32 SW14      29.84F
MONTGOMERY     FAIR      85  57  38 SW14      29.82F
WHITE PLAINS   FAIR      84  50  30 SW9G20    29.84F
ISLIP          PTSUNNY   75  61  61 S17G24    29.87F
NEW YORK CITY  PTSUNNY   88  52  29 SW17G28   29.84F
CENTRAL PARK   FAIR      84  58  40 VRB6      29.88F
$$

NYZ005>009-017-018-044>046-055-056-252200-
CENTRAL


CITY           SKY/WX    TMP DP  RH WIND       PRES   REMARKS
FULTON         FAIR      81  53  37 W10       29.81F
SYRACUSE       PTSUNNY   83  54  36 SW12      29.81F
ROME           FAIR      82  51  34 W14       29.83F
ELMIRA         FAIR      86  52  30 SW12      29.84F
BINGHAMTON     FAIR      80  48  32 W10       29.89F
$$

NYZ026>034-041>043-087-252200-
NORTH


CITY           SKY/WX    TMP DP  RH WIND       PRES   REMARKS
WATERTOWN      FAIR      73  54  51 W12       29.79F
FORT DRUM      NOT AVBL
OGDENSBURG     PTSUNNY   69  55  60 S3        29.76F
MASSENA        CLOUDY    74  55  51 SW16G26   29.75F
SARANAC LAKE   PTSUNNY   73  51  46 SW16G29   29.80F
PLATTSBURGH    FAIR      80  54  40 VRB7      29.69F
$$

NYZ001>004-010>016-019>021-085-252200-
WEST


CITY           SKY/WX    TMP DP  RH WIND       PRES   REMARKS
NIAGARA FALLS  FAIR      82  50  32 SW21G28   29.85F
BUFFALO        FAIR      77  50  38 W15G23    29.87F
DUNKIRK        FAIR      76  49  38 W12       29.89F
JAMESTOWN      FAIR      79  50  36 SW16      29.92F
WELLSVILLE     FAIR      81  47  30 W14G21    29.93F
ROCHESTER      FAIR      83  50  31 W15       29.84F
PENN YAN       FAIR      86  47  25 W9        29.85F
$$

             KEY
       WCI = WIND CHILL INDEX
       VSB = VISIBILITY
       HX  = HEAT INDEX
$$



USA.gov is the U.S. government's official web portal to all federal, state and local government web resources and services.